Location: Deardoffs Mills (historical)
(40.6353°N, 81.5590°W)
Time: 09:11:55
(UTC+00:00)

Envisat - Pass Details

Date: 06 October 2022
Orbit: 763 x 765 km, 98.2° (Epoch: 02 December)

Event Time Altitude Azimuth Distance (km) Brightness Sun altitude
Rises 10:27:29 0° 4° (N) 3,241 6.4 -12.3°
Reaches altitude 10° 10:29:55 10° 357° (N) 2,311 5.5 -11.8°
Maximum altitude 10:34:36 39° 290° (WNW) 1,143 3.5 -10.9°
Drops below altitude 10° 10:39:16 10° 223° (SW) 2,295 5.1 -10.0°
Sets 10:41:41 0° 216° (SW) 3,217 5.9 -9.6°
